Regional Weather Roundup
Issued by NWS

Home | Current Version | Previous Version | Text Only | Print | Product List | Glossary On
Versions: 1 2 3 4 5 6 7 8 9 10 11 12 13 14 15 16 17 18 19 20 21 22 23 24 25 26 27 28 29 30 31 32 33 34 35 36 37 38 39 40 41 42 43 44 45 46 47 48 49 50
000
ASUS45 KBOU 210207
RWRCO

WEATHER ROUNDUP FOR COLORADO
NATIONAL WEATHER SERVICE DENVER/BOULDER CO
800 PM MDT WED AUG 20 2014

NOTE: "FAIR" INDICATES FEW OR NO CLOUDS BELOW 12000 FEET WITH NO
SIGNIFICANT WEATHER AND/OR OBSTRUCTIONS TO VISIBILITY.

COZ001>005-013-030-031-210300-
...NORTHWEST COLORADO...

CITY           SKY/WX    TMP DP  RH WIND       PRES   REMARKS
CRAIG          CLOUDY    68  50  52 VRB3      30.08R THUNDER
HAYDEN         PTCLDY    61  50  67 SE10      30.11R
MEEKER         PTCLDY    66  50  56 N8        30.10R
MOUNT WERNER   NOT AVBL
STEAMBOAT SPGS MOCLDY    59  50  72 E8        30.13S
WALDEN         MOCLDY    54  45  71 SE9       30.20F
$$

COZ006>008-011-210300-
...WEST CENTRAL VALLEYS...

CITY           SKY/WX    TMP DP  RH WIND       PRES   REMARKS
GRAND JUNCTION PTCLDY    73  49  42 SW8       30.00R
MONTROSE       PTCLDY    73  45  36 S5        30.07R
EAGLE          CLEAR     68  48  49 CALM      30.11S
RIFLE          CLEAR     74  47  38 W12       30.01R
DELTA          NOT AVBL
NUCLA          PTCLDY    70  43  37 W23G31    30.14R
$$

COZ017>023-064>068-210300-
...SOUTHWEST COLORADO...

CITY           SKY/WX    TMP DP  RH WIND       PRES   REMARKS
DURANGO        CLEAR     72  36  26 W10       30.11S
CORTEZ         CLEAR     74  36  25 W8        30.09S
PAGOSA SPRINGS CLEAR     69  34  26 W6        30.19R
TELLURIDE      CLEAR     61  39  44 NW8       30.29R
WOLF CREEK PAS NOT AVBL
$$

COZ009-010-012-014-032>034-037-058>063-210300-
...CENTRAL COLORADO...

CITY           SKY/WX    TMP DP  RH WIND       PRES   REMARKS
ASPEN          PTCLDY    60  48  64 SW8       30.19R
BUENA VISTA    CLOUDY    67  41  38 CALM      30.16R
COPPER MTN     PTCLDY    50  39  66 W18       30.47S
BERTHOUD PASS  FAIR      41  41 100 NW14      30.50F
COTTONWOOD PAS CLOUDY    63  36  36 W10G18    30.31S
GUNNISON       CLOUDY    66  41  39 W9        30.20R
KREMMLING      PTCLDY    59  45  58 CALM      30.18R
LEADVILLE      MOCLDY    57  40  52 N8        30.30R
MONARCH PASS   MOCLDY    46  37  71 W16       30.57S
SALIDA         CLOUDY    70  41  35 SW5       30.21R
SUNLIGHT       PTCLDY    50  46  87 CALM      30.40S
WILKERSON PASS LGT RAIN  52  41  66 SW7       30.43S
$$

COZ069>075-210300-
...SAN LUIS VALLEY/SANGRE DE CRISTO MOUNTAINS...

CITY           SKY/WX    TMP DP  RH WIND       PRES   REMARKS
ALAMOSA        PTCLDY    68  44  42 N10       30.13R
LA VETA PASS   NOT AVBL
SAGUACHE       MOCLDY    61  46  59 NW12      30.19R
$$

COZ035-036-038>040-210300-
...NORTHERN COLORADO FRONT RANGE...

CITY           SKY/WX    TMP DP  RH WIND       PRES   REMARKS
DENVER INTL AP MOCLDY    76  49  38 NW6       29.95R
DMNS CITY PARK   N/A     74  49  40 W2        29.96S
AURORA         PTCLDY    73  51  46 CALM      29.98R
FRONT RANGE AP NOT AVBL
ERIE MUNI ARPT MOCLDY    77  47  34 CALM      29.94R
BOULDER MUN AP MOCLDY    75  48  38 NE5       29.94R
CENTENNIAL     MOCLDY    75  50  41 NE3       29.99R
BROOMFIELD     MOCLDY    73  50  43 W13G18    29.99R
FORT COLLINS   PTCLDY    73  52  46 N12       29.94R
LONGMONT       PTCLDY    78  48  35 E5        29.95R
$$

COZ041-046-047-076>085-087-088-210300-
...PIKES PEAK/PALMER DIVIDE AND SOUTHERN FOOTHILLS...

CITY           SKY/WX    TMP DP  RH WIND       PRES   REMARKS
COLO. SPRINGS  MOCLDY    71  54  54 N8        30.01R
A. F. ACADEMY  MOCLDY    69  54  59 N8        30.04R
ELLICOTT       PTCLDY    71  50  47 E12       29.99R
FALCON         CLOUDY    67  53  62 N8        30.07R
FORT CARSON    MOCLDY    72  55  53 NE6       29.98R
LIMON          PTCLDY    72  51  47 NE5       29.95S
MONUMENT HILL  CLOUDY    64  52  63 CALM      30.08R
TRINIDAD       MOCLDY    79  46  31 SW5       29.96R
$$

COZ042>045-048>051-090-091-210300-
...NORTHEAST COLORADO...

CITY           SKY/WX    TMP DP  RH WIND       PRES   REMARKS
GREELEY ARPT   MOCLDY    70  54  56 NE8       29.93F
AKRON          MOCLDY    72  56  57 SE6       29.89F
BURLINGTON     CLOUDY    78  57  48 N9        29.88R
WRAY             N/A     73  63  72 N6        29.85F
STERLING       MOCLDY    79  59  50 SE5       29.84F
HOLYOKE        NOT AVBL
FORT MORGAN    MOCLDY    73  56  56 SE6       29.90R
$$

COZ086-089-092>099-210300-
...SOUTHEAST COLORADO...

CITY           SKY/WX    TMP DP  RH WIND       PRES   REMARKS
PUEBLO         PTCLDY    84  49  29 E3        29.84R
LA JUNTA       PTCLDY    85  50  29 S9        29.82R
LAMAR          MOCLDY    86  51  29 SW8       29.79R
SPRINGFIELD      N/A     83  50  31 W8        29.87R
$$



USA.gov is the U.S. government's official web portal to all federal, state and local government web resources and services.